Terminal Aerodrome Forecast
Issued by NWS Melbourne, FL

Home | Current Version | Previous Version | Text Only | Print | Product List | Glossary On
Versions: 1 2 3 4 5 6 7 8 9 10 11 12 13 14 15 16 17 18 19 20 21 22 23 24 25
000
FTUS42 KMLB 282057 AAA
TAFMCO
TAF AMD
KMCO 282057Z 2821/2918 13013G19KT P6SM FEW060 SCT250
     FM290200 12007KT P6SM SKC
     FM291000 11005KT P6SM FEW015
     FM291400 13013G20KT P6SM FEW030=

USA.gov is the U.S. government's official web portal to all federal, state and local government web resources and services.